TimeHST,TemperatureF,Dew PointF,Humidity,Sea Level PressureIn,VisibilityMPH,Wind Direction,Wind SpeedMPH,Gust SpeedMPH,PrecipitationIn,Events,Conditions,WindDirDegrees,DateUTC
12:53 AM,78.1,66.9,68,29.96,10.0,East,6.9,-,N/A,,Partly Cloudy,90,2012-10-03 10:53:00
1:53 AM,78.1,68.0,71,29.96,10.0,SE,3.5,-,N/A,,Clear,140,2012-10-03 11:53:00
2:53 AM,77.0,68.0,74,29.95,10.0,Calm,Calm,-,N/A,,Partly Cloudy,0,2012-10-03 12:53:00
3:53 AM,75.9,68.0,76,29.94,10.0,ENE,3.5,-,N/A,,Clear,60,2012-10-03 13:53:00
4:53 AM,75.0,66.9,76,29.95,10.0,Calm,Calm,-,N/A,,Clear,0,2012-10-03 14:53:00
5:53 AM,73.9,66.9,79,29.95,10.0,North,6.9,-,N/A,,Clear,10,2012-10-03 15:53:00
6:53 AM,75.9,64.0,67,29.96,10.0,NNE,10.4,-,N/A,,Clear,20,2012-10-03 16:53:00
7:53 AM,81.0,64.9,58,29.98,10.0,North,12.7,-,N/A,,Clear,10,2012-10-03 17:53:00
8:53 AM,81.0,68.0,65,29.99,10.0,NW,12.7,-,N/A,,Partly Cloudy,310,2012-10-03 18:53:00
9:53 AM,82.0,68.0,62,29.99,10.0,WNW,9.2,-,N/A,,Clear,290,2012-10-03 19:53:00
10:53 AM,82.9,70.0,65,29.99,10.0,WNW,12.7,-,N/A,,Partly Cloudy,290,2012-10-03 20:53:00
11:53 AM,84.0,68.0,58,29.97,10.0,WNW,12.7,-,N/A,,Clear,290,2012-10-03 21:53:00
12:53 PM,84.0,69.1,61,29.94,10.0,WNW,8.1,-,N/A,,Clear,290,2012-10-03 22:53:00
1:53 PM,84.0,69.1,61,29.92,10.0,West,8.1,-,N/A,,Clear,270,2012-10-03 23:53:00
2:53 PM,82.9,68.0,60,29.92,10.0,WSW,8.1,-,N/A,,Clear,250,2012-10-04 00:53:00
3:53 PM,82.0,69.1,65,29.92,10.0,WSW,8.1,-,N/A,,Clear,250,2012-10-04 01:53:00
4:53 PM,82.9,69.1,63,29.94,10.0,SW,6.9,-,N/A,,Clear,230,2012-10-04 02:53:00
5:53 PM,82.0,66.9,60,29.95,10.0,South,12.7,-,N/A,,Clear,180,2012-10-04 03:53:00
6:53 PM,80.1,70.0,71,29.96,10.0,SSE,13.8,-,N/A,,Clear,150,2012-10-04 04:53:00
7:53 PM,79.0,69.1,72,29.99,10.0,SSE,15.0,-,N/A,,Clear,150,2012-10-04 05:53:00
8:53 PM,79.0,69.1,72,30.01,10.0,SE,9.2,-,N/A,,Clear,130,2012-10-04 06:53:00
9:53 PM,78.1,70.0,76,30.01,10.0,SE,10.4,-,N/A,,Scattered Clouds,130,2012-10-04 07:53:00
10:53 PM,78.1,70.0,76,30.01,10.0,SE,4.6,-,N/A,,Overcast,140,2012-10-04 08:53:00
11:53 PM,-9999,-9999,N/A,30.01,10.0,Calm,Calm,-,N/A,,Mostly Cloudy,0,2012-10-04 09:53:00